Simultaneous Nadir Overpasses (SNOs) Predictions

Prediction of SNOs between GOES-14 and NPP Satellite Orbit:

Table of predicted SNOs for the next 14.0 days since TLE Epoch: 10/15/2022
Index Date Time (GOES-14) GOES-14 Lat,Lon NPP Lat,Lon Distance(km) Time Diff (sec)
1 10/15/2022 20:34:22 -0.20,-104.28 -0.90,-107.37 352.53 80
2 10/16/2022 20:18:17 -0.21,-104.28 0.13,-102.84 164.93 80
3 10/18/2022 08:40:05 0.17,-104.36 1.00,-108.12 427.51 80
4 10/19/2022 08:18:40 0.19,-104.34 0.02,-103.58 87.29 80
5 10/21/2022 20:21:51 -0.17,-104.24 -0.20,-104.34 11.91 80
6 10/24/2022 08:27:34 0.15,-104.35 0.34,-105.08 83.98 80
7 10/25/2022 08:06:08 0.18,-104.33 -0.64,-100.54 431.12 80
8 10/26/2022 20:28:04 -0.14,-104.19 -0.51,-105.85 188.11 80
9 10/27/2022 20:11:59 -0.16,-104.20 0.48,-101.31 329.36 80
